User: anonymous   Login
Location: Roanoke
(37.2710°N, 79.9420°W)
Time: 07:56:25
(UTC-04:00)
Language:

Cosmos 1441 Rocket - Orbit

View from above orbital plane
View from above orbital plane
View from above satellite
View from above satellite

Ground track
Ground track

The orbit data is extracted from the following two-line orbital elements,

1 13819U 83010B   16151.23294877  .00000594  00000-0  30558-4 0  9993
2 13819  81.1166 246.4565 0033526 172.6142 187.5587 15.14380291815752
Epoch (UTC): 30 May 2016 05:35:26
Eccentricity: 0.0033526
inclination: 81.1166°
perigee height: 500 km
apogee height: 546 km
right ascension of ascending node: 246.4565°
argument of perigee: 172.6142°
revolutions per day: 15.14380291
mean anomaly at epoch: 187.5587°
orbit number at epoch: 81575

The dashed part of the orbit path shows where the satellite is in the earth's shadow,  

DLR